Weather History for Stuart, FL

Change the Weather History Date:

Wednesday, September 5, 2012

  Actual Average Record
Temperature  
Mean Temperature 81 °F -  
Max Temperature 89 °F 89 °F 95 °F (1970)
Min Temperature 73 °F 73 °F 68 °F (1972)
Cooling Degree Days 16    
Growing Degree Days 31 (Base 50)    
Moisture  
Dew Point 71 °F    
Average Humidity 84    
Maximum Humidity 94    
Minimum Humidity 49    
Precipitation  
Precipitation 0.02 in - - ()
Sea Level Pressure  
Sea Level Pressure 30.01 in    
Wind  
Wind Speed 4 mph (SSE)    
Max Wind Speed 12 mph    
Max Gust Speed -    
Visibility 9 miles    
Events Rain , Thunderstorm    
Averages and records for this station are not official NWS values.
T = Trace of Precipitation, MM = Missing Value Source: NWS Daily Summary

Daily Weather History Graph

Daily Weather History Graph

Search for Another Location

Airport:

Trip Planner

Search our weather history database for the weather conditions in past years. The results will help you decide how hot, cold, wet, or windy it might be!

Date:

Astronomy

Sep. 05, 2012 Rise Set
Actual Time 7:02 AM EDT 7:36 PM EDT
Civil Twilight 6:38 AM EDT 7:59 PM EDT
Nautical Twilight 6:10 AM EDT 8:27 PM EDT
Astronomical Twilight 5:42 AM EDT 8:55 PM EDT
Moon 10:39 PM EDT (9/5) 11:31 AM EDT (9/5)
Length of Visible Light 13h 21m
Length of Day
12h 34m
Waning Gibbous, 76% of the Moon is Illuminated
Sep 5
Waning Gibbous
Sep 8
Last Quarter
Sep 15
New
Sep 22
First Quarter
Sep 29
Full

Hourly Weather History & Observations

Time (EDT) Temp. Heat Index Dew Point Humidity Pressure Visibility Wind Dir Wind Speed Gust Speed Precip Events Conditions
12:15 AM 73.4 °F - 68.0 °F 83% 30.02 in 10.0 mi Calm Calm - N/A   Clear
12:35 AM 73.4 °F - 68.0 °F 83% 30.02 in 10.0 mi Calm Calm - N/A   Clear
12:55 AM 73.4 °F - 69.8 °F 88% 30.02 in 10.0 mi Calm Calm - N/A   Scattered Clouds
1:15 AM 73.4 °F - 69.8 °F 88% 30.02 in 10.0 mi Calm Calm - N/A   Mostly Cloudy
1:35 AM 73.4 °F - 69.8 °F 88% 30.02 in 10.0 mi Calm Calm - N/A Thunderstorm Thunderstorm
1:55 AM 75.2 °F - 69.8 °F 83% 30.01 in 10.0 mi SSE 3.5 mph - N/A Thunderstorm Overcast
2:15 AM 75.2 °F - 68.0 °F 78% 30.00 in 10.0 mi SSE 5.8 mph - N/A Thunderstorm Mostly Cloudy
2:35 AM 75.2 °F - 69.8 °F 83% 30.00 in 10.0 mi ESE 4.6 mph - N/A   Scattered Clouds
2:55 AM 75.2 °F - 71.6 °F 89% 30.00 in 10.0 mi SE 4.6 mph - N/A Thunderstorm Thunderstorm
3:15 AM 75.2 °F - 71.6 °F 89% 30.00 in 10.0 mi SE 6.9 mph - N/A Thunderstorm Thunderstorm
3:35 AM 77.0 °F - 71.6 °F 83% 29.99 in 10.0 mi SE 3.5 mph - N/A Thunderstorm Thunderstorm
3:55 AM 77.0 °F - 71.6 °F 83% 29.98 in 10.0 mi ESE 5.8 mph - N/A Thunderstorm Thunderstorm
4:15 AM 77.0 °F - 71.6 °F 83% 29.99 in 10.0 mi SE 5.8 mph - N/A Thunderstorm Thunderstorm
4:35 AM 77.0 °F - 71.6 °F 83% 29.99 in 10.0 mi SE 4.6 mph - 0.01 in Rain , Thunderstorm Rain
4:55 AM 77.0 °F - 73.4 °F 89% 29.98 in 10.0 mi Calm Calm - 0.01 in Rain , Thunderstorm Light Thunderstorms and Rain
5:15 AM 77.0 °F - 73.4 °F 89% 29.99 in 10.0 mi East 5.8 mph - N/A   Scattered Clouds
5:35 AM 77.0 °F - 73.4 °F 89% 29.99 in 10.0 mi ESE 4.6 mph - N/A   Clear
5:55 AM 75.2 °F - 71.6 °F 89% 29.99 in 10.0 mi East 6.9 mph - N/A   Clear
6:15 AM 77.0 °F - 73.4 °F 89% 29.99 in 10.0 mi SE 5.8 mph - N/A Thunderstorm Scattered Clouds
6:47 AM 77.0 °F - 73.4 °F 89% 30.00 in 7.0 mi ESE 11.5 mph - N/A   Mostly Cloudy
7:47 AM 77.0 °F - 75.2 °F 94% 30.01 in 7.0 mi SSE 11.5 mph - N/A   Mostly Cloudy
8:47 AM 80.6 °F 85.4 °F 73.4 °F 79% 30.01 in 7.0 mi South 5.8 mph - N/A   Scattered Clouds
9:47 AM 82.4 °F 88.2 °F 73.4 °F 74% 30.02 in 7.0 mi South 10.4 mph - N/A   Scattered Clouds
10:55 AM 86.0 °F 93.4 °F 73.4 °F 66% 30.03 in 7.0 mi South 10.4 mph - N/A   Scattered Clouds
11:50 AM 87.8 °F 93.8 °F 71.6 °F 58% 30.02 in 7.0 mi South 11.5 mph - N/A   Mostly Cloudy
2:47 PM 89.6 °F 93.4 °F 68.0 °F 49% 29.98 in 7.0 mi South 10.4 mph - N/A   Mostly Cloudy
3:47 PM 86.0 °F 89.4 °F 68.0 °F 55% 29.95 in 7.0 mi SW 9.2 mph - N/A   Mostly Cloudy
5:47 PM 82.4 °F 89.5 °F 75.2 °F 79% 29.99 in 7.0 mi Calm Calm - N/A   Mostly Cloudy
6:47 PM 80.6 °F 85.4 °F 73.4 °F 79% 29.99 in 7.0 mi NNW 8.1 mph - N/A   Mostly Cloudy
8:15 PM 73.4 °F - 69.8 °F 88% 30.01 in 10.0 mi NNW 3.5 mph - N/A Thunderstorm Scattered Clouds
8:35 PM 73.4 °F - 71.6 °F 94% 30.02 in 10.0 mi Calm Calm - 0.01 in Rain Light Rain
8:55 PM 73.4 °F - 71.6 °F 94% 30.03 in 10.0 mi Calm Calm - 0.01 in   Scattered Clouds
9:15 PM 75.2 °F - 71.6 °F 89% 30.04 in 10.0 mi SW 3.5 mph - N/A   Scattered Clouds
9:35 PM 73.4 °F - 69.8 °F 88% 30.03 in 10.0 mi WSW 3.5 mph - N/A   Clear
9:55 PM 75.2 °F - 71.6 °F 89% 30.03 in 10.0 mi SSE 6.9 mph - N/A   Clear
10:15 PM 73.4 °F - 69.8 °F 88% 30.04 in 10.0 mi SSW 3.5 mph - N/A   Clear
10:35 PM 73.4 °F - 71.6 °F 94% 30.04 in 10.0 mi WSW 4.6 mph - N/A   Clear
10:55 PM 75.2 °F - 69.8 °F 83% 30.03 in 10.0 mi SW 3.5 mph - N/A   Clear
11:15 PM 73.4 °F - 69.8 °F 88% 30.02 in 10.0 mi SW 4.6 mph - N/A   Clear
11:35 PM 73.4 °F - 71.6 °F 94% 30.02 in 10.0 mi SSW 4.6 mph - N/A   Clear
11:55 PM 75.2 °F - 71.6 °F 89% 30.02 in 10.0 mi WSW 4.6 mph - N/A   Clear